Starlink 4264

operational
NORAD ID: 52993 Int'l Des: 2022-076 Owner: SPXS Country: US Constellation: starlink
LEOCIRCULAR

关于 Starlink 4264

正在加载描述...

实时位置

正在加载3D地球...

即将过境

高度历史

Altitude vs Time

uPlot chart will show altitude changes over time

两行轨道根数

1 52993U 22076H 25306.32445676 .00001017 00000-0 81995-4 0 9993
2 52993 53.2175 305.8851 0001289 89.3358 270.7781 15.08838888183617
Epoch: Nov 2, 2025 • Age: 11 hours

当前状态

高度 556.1 km
速度 7.58 km/s
星下点 -45.69°S, 144.74°W
发射日期 Jul 7, 2022
运行时间 3.3 years
类型 internet

技术详情

分类 Payload
质量 297.00 kg
干质量 275.00 kg
总质量 297.00 kg
长度 0.20 m
直径 2.80 m
跨度 9.00 m
形状 Box + pan
制造商 SPXS
平台类型 Starlink
阶段状态 In Orbit
所有者/国家 SPXS/US

大型星座

Loading constellations...